Darstellungsparameter: Aktuell verwendete Einstellungen:
Skalierung der Graphiken ... ?
xyx+y,   Skalierungsfaktor:      Skalierung: Modus: x, Faktor: 1
Darstellungszeitraum ... ?
Vom - - bis: - -   Zeitraum: 17.05.2020 - 17.05.2020
Min/Max/Avg-Anzeige ... ?
Zeige MMA aktuell
Zeige MMA Monat
Zeige MMA alles
Zeige --A aktuell
Zeige --A Monat
Zeige --A alles
Keine MMA-Anzeige
MMA:
Keine MMA-Graphiken
MMA-Basis: 17.05.2020 - 17.05.2020
Quicknavigation für Darstellung... ?
Tage:      1T, 2T, 3T, 5T -1T -2T -3T -5T +1T +2T +3T +5T
Wochen: 1W, 2W, 3W -1W -2W -3W +1W +2W +3W
Monate: 1M, 3M, 6M -1M -3M -6M +1M +3M +6M
Jahre:    1J, 3J, 5J, 10J -1J -3J -5J -10J +1J +3J +5J +10J
Nutze für die Darstellung ... ?
Originaldaten oder Mittelwerte auf ...
Stundenbasis Tagesbasis Wochenbasis
Monatsbasis Jahresbasis      Datenbasis: Original-Daten
Darstellen als:
Statistik (Auto) Statistik J:M      Darstellung:
Zur Graphik,    zurück zur Übersicht aller Sensoren.
 
Tabellarische Datenbersicht: ?
 
Sensor: Nr:Datum:Temp:Feuchte:Taupunkt:
Aussen-T/F 1 17-05-2020 00:00:00 11.7 C 67 % 5.78 C
2 17-05-2020 00:05:00 11.7 C 68 % 6 C
3 17-05-2020 00:10:00 11.8 C 67 % 5.88 C
4 17-05-2020 00:15:00 11.8 C 68 % 6.09 C
5 17-05-2020 00:20:00 11.7 C 68 % 6 C
6 17-05-2020 00:25:00 11.5 C 69 % 6.02 C
7 17-05-2020 00:30:00 11.3 C 69 % 5.83 C
8 17-05-2020 00:35:00 11.2 C 70 % 5.94 C
9 17-05-2020 00:40:00 11.1 C 71 % 6.05 C
10 17-05-2020 00:45:00 10.8 C 71 % 5.76 C
11 17-05-2020 00:50:00 10.7 C 72 % 5.87 C
12 17-05-2020 00:55:00 10.5 C 73 % 5.87 C
13 17-05-2020 01:00:00 10.4 C 73 % 5.78 C
14 17-05-2020 01:05:00 10.3 C 74 % 5.88 C
15 17-05-2020 01:10:00 10.2 C 74 % 5.78 C
16 17-05-2020 01:15:00 10.2 C 74 % 5.78 C
17 17-05-2020 01:20:00 10 C 74 % 5.59 C
18 17-05-2020 01:25:00 9.9 C 75 % 5.68 C
19 17-05-2020 01:30:00 9.8 C 76 % 5.78 C
20 17-05-2020 01:35:00 9.7 C 76 % 5.68 C
21 17-05-2020 01:40:00 9.6 C 76 % 5.58 C
22 17-05-2020 01:45:00 9.5 C 76 % 5.49 C
23 17-05-2020 01:50:00 9.4 C 76 % 5.39 C
24 17-05-2020 01:55:00 9.3 C 77 % 5.48 C
25 17-05-2020 02:00:00 9.2 C 77 % 5.38 C
Sensor: Nr:Datum:Temp:Feuchte:Taupunkt:
Aussen-T/F 26 17-05-2020 02:05:00 9.2 C 77 % 5.38 C
27 17-05-2020 02:10:00 9.1 C 77 % 5.29 C
28 17-05-2020 02:15:00 9.1 C 78 % 5.47 C
29 17-05-2020 02:20:00 9.1 C 78 % 5.47 C
30 17-05-2020 02:25:00 9.2 C 77 % 5.38 C
31 17-05-2020 02:30:00 9.3 C 77 % 5.48 C
32 17-05-2020 02:35:00 9.3 C 77 % 5.48 C
33 17-05-2020 02:40:00 9.2 C 77 % 5.38 C
34 17-05-2020 02:45:00 9.1 C 77 % 5.29 C
35 17-05-2020 02:50:00 9 C 78 % 5.38 C
36 17-05-2020 02:55:00 8.9 C 79 % 5.46 C
37 17-05-2020 03:00:00 8.8 C 79 % 5.36 C
38 17-05-2020 03:05:00 8.7 C 80 % 5.45 C
39 17-05-2020 03:10:00 8.6 C 81 % 5.53 C
40 17-05-2020 03:15:00 8.6 C 81 % 5.53 C
41 17-05-2020 03:20:00 8.6 C 81 % 5.53 C
42 17-05-2020 03:25:00 8.6 C 81 % 5.53 C
43 17-05-2020 03:30:00 8.6 C 81 % 5.53 C
44 17-05-2020 03:35:00 8.6 C 82 % 5.71 C
45 17-05-2020 03:40:00 8.5 C 82 % 5.61 C
46 17-05-2020 03:45:00 8.6 C 82 % 5.71 C
47 17-05-2020 03:50:00 8.7 C 82 % 5.8 C
48 17-05-2020 03:55:00 8.6 C 81 % 5.53 C
49 17-05-2020 04:00:00 8.6 C 82 % 5.71 C
50 17-05-2020 04:05:00 8.6 C 82 % 5.71 C
Sensor: Nr:Datum:Temp:Feuchte:Taupunkt:
Aussen-T/F 51 17-05-2020 04:10:00 8.6 C 82 % 5.71 C
52 17-05-2020 04:15:00 8.5 C 82 % 5.61 C
53 17-05-2020 04:20:00 8.4 C 82 % 5.51 C
54 17-05-2020 04:25:00 8.4 C 83 % 5.69 C
55 17-05-2020 04:30:00 8.3 C 83 % 5.59 C
56 17-05-2020 04:35:00 8.2 C 83 % 5.49 C
57 17-05-2020 04:40:00 8.1 C 83 % 5.39 C
58 17-05-2020 04:45:00 7.9 C 84 % 5.37 C
59 17-05-2020 04:50:00 7.8 C 84 % 5.27 C
60 17-05-2020 04:55:00 7.7 C 85 % 5.34 C
61 17-05-2020 05:00:00 7.6 C 85 % 5.24 C
62 17-05-2020 05:05:00 7.5 C 85 % 5.15 C
63 17-05-2020 05:10:00 7.4 C 86 % 5.22 C
64 17-05-2020 05:15:00 7.3 C 86 % 5.12 C
65 17-05-2020 05:20:00 7.3 C 86 % 5.12 C
66 17-05-2020 05:25:00 7.2 C 87 % 5.19 C
67 17-05-2020 05:30:00 7.2 C 87 % 5.19 C
68 17-05-2020 05:35:00 7.1 C 87 % 5.09 C
69 17-05-2020 05:40:00 7.1 C 87 % 5.09 C
70 17-05-2020 05:45:00 6.9 C 87 % 4.89 C
71 17-05-2020 05:50:00 6.8 C 87 % 4.79 C
72 17-05-2020 05:55:00 6.8 C 87 % 4.79 C
73 17-05-2020 06:00:00 6.8 C 87 % 4.79 C
74 17-05-2020 06:05:00 6.7 C 87 % 4.69 C
75 17-05-2020 06:10:00 6.7 C 88 % 4.86 C
Sensor: Nr:Datum:Temp:Feuchte:Taupunkt:
Aussen-T/F 76 17-05-2020 06:15:00 6.7 C 88 % 4.86 C
77 17-05-2020 06:20:00 6.7 C 88 % 4.86 C
78 17-05-2020 06:25:00 6.7 C 88 % 4.86 C
79 17-05-2020 06:30:00 6.7 C 88 % 4.86 C
80 17-05-2020 06:35:00 6.7 C 88 % 4.86 C
81 17-05-2020 06:40:00 6.7 C 88 % 4.86 C
82 17-05-2020 06:45:00 6.7 C 88 % 4.86 C
83 17-05-2020 06:50:00 6.7 C 88 % 4.86 C
84 17-05-2020 06:55:00 6.7 C 88 % 4.86 C
85 17-05-2020 07:00:00 6.8 C 89 % 5.12 C
86 17-05-2020 07:05:00 6.8 C 89 % 5.12 C
87 17-05-2020 07:10:00 6.9 C 89 % 5.22 C
88 17-05-2020 07:15:00 7 C 88 % 5.15 C
89 17-05-2020 07:20:00 7 C 88 % 5.15 C
90 17-05-2020 07:25:00 6.9 C 88 % 5.05 C
91 17-05-2020 07:30:00 6.9 C 88 % 5.05 C
92 17-05-2020 07:35:00 6.9 C 89 % 5.22 C
93 17-05-2020 07:40:00 6.9 C 89 % 5.22 C
94 17-05-2020 07:45:00 7 C 89 % 5.31 C
95 17-05-2020 07:50:00 7 C 89 % 5.31 C
96 17-05-2020 07:55:00 7.1 C 89 % 5.41 C
97 17-05-2020 08:00:00 7.1 C 89 % 5.41 C
98 17-05-2020 08:05:00 7.2 C 89 % 5.51 C
99 17-05-2020 08:10:00 7.2 C 89 % 5.51 C
100 17-05-2020 08:15:00 7.3 C 89 % 5.61 C
Sensor: Nr:Datum:Temp:Feuchte:Taupunkt:
Aussen-T/F 101 17-05-2020 08:20:00 7.3 C 89 % 5.61 C
102 17-05-2020 08:25:00 7.4 C 89 % 5.71 C
103 17-05-2020 08:30:00 7.4 C 89 % 5.71 C
104 17-05-2020 08:35:00 7.5 C 89 % 5.81 C
105 17-05-2020 08:40:00 7.6 C 89 % 5.91 C
106 17-05-2020 08:45:00 7.8 C 89 % 6.1 C
107 17-05-2020 08:50:00 7.9 C 88 % 6.04 C
108 17-05-2020 08:55:00 8.2 C 88 % 6.33 C
109 17-05-2020 09:00:00 8.4 C 87 % 6.37 C
110 17-05-2020 09:05:00 8.7 C 85 % 6.32 C
111 17-05-2020 09:10:00 9.1 C 83 % 6.37 C
112 17-05-2020 09:15:00 9.3 C 82 % 6.39 C
113 17-05-2020 09:20:00 9.6 C 80 % 6.32 C
114 17-05-2020 09:25:00 9.9 C 79 % 6.43 C
115 17-05-2020 09:30:00 10.2 C 78 % 6.54 C
116 17-05-2020 09:35:00 10.4 C 77 % 6.55 C
117 17-05-2020 09:40:00 10.7 C 75 % 6.46 C
118 17-05-2020 09:45:00 10.9 C 73 % 6.26 C
119 17-05-2020 09:50:00 11.2 C 70 % 5.94 C
120 17-05-2020 09:55:00 11.2 C 69 % 5.73 C
121 17-05-2020 10:00:00 11.3 C 68 % 5.62 C
122 17-05-2020 10:05:00 11.4 C 68 % 5.71 C
123 17-05-2020 10:10:00 11.6 C 68 % 5.9 C
124 17-05-2020 10:15:00 11.7 C 69 % 6.21 C
125 17-05-2020 10:20:00 11.9 C 66 % 5.76 C
Sensor: Nr:Datum:Temp:Feuchte:Taupunkt:
Aussen-T/F 126 17-05-2020 10:25:00 12.2 C 65 % 5.82 C
127 17-05-2020 10:30:00 12.4 C 66 % 6.23 C
128 17-05-2020 10:35:00 12.6 C 65 % 6.2 C
129 17-05-2020 10:40:00 12.8 C 63 % 5.94 C
130 17-05-2020 10:45:00 12.9 C 62 % 5.8 C
131 17-05-2020 10:50:00 12.9 C 63 % 6.04 C
132 17-05-2020 10:55:00 12.9 C 61 % 5.57 C
133 17-05-2020 11:00:00 12.9 C 62 % 5.8 C
134 17-05-2020 11:05:00 12.9 C 62 % 5.8 C
135 17-05-2020 11:10:00 13.1 C 61 % 5.76 C
136 17-05-2020 11:15:00 13.1 C 61 % 5.76 C
137 17-05-2020 11:20:00 13.1 C 60 % 5.52 C
138 17-05-2020 11:25:00 13.1 C 61 % 5.76 C
139 17-05-2020 11:30:00 13.2 C 61 % 5.85 C
140 17-05-2020 11:35:00 13.3 C 61 % 5.95 C
141 17-05-2020 11:40:00 13.4 C 62 % 6.28 C
142 17-05-2020 11:45:00 13.4 C 61 % 6.04 C
143 17-05-2020 11:50:00 13.6 C 61 % 6.23 C
144 17-05-2020 11:55:00 13.7 C 59 % 5.84 C
145 17-05-2020 12:00:00 13.7 C 58 % 5.6 C
146 17-05-2020 12:05:00 13.8 C 58 % 5.69 C
147 17-05-2020 12:10:00 14 C 57 % 5.63 C
148 17-05-2020 12:15:00 14.2 C 57 % 5.81 C
149 17-05-2020 12:20:00 14.3 C 56 % 5.65 C
150 17-05-2020 12:25:00 14.3 C 56 % 5.65 C
Sensor: Nr:Datum:Temp:Feuchte:Taupunkt:
Aussen-T/F 151 17-05-2020 12:30:00 14.2 C 56 % 5.56 C
152 17-05-2020 12:35:00 14.3 C 57 % 5.91 C
153 17-05-2020 12:40:00 14.4 C 57 % 6 C
154 17-05-2020 12:45:00 14.7 C 55 % 5.76 C
155 17-05-2020 12:50:00 14.6 C 55 % 5.67 C
156 17-05-2020 12:55:00 14.6 C 56 % 5.93 C
157 17-05-2020 13:00:00 14.6 C 55 % 5.67 C
158 17-05-2020 13:05:00 14.8 C 56 % 6.12 C
159 17-05-2020 13:10:00 14.9 C 53 % 5.42 C
160 17-05-2020 13:15:00 15.1 C 52 % 5.33 C
161 17-05-2020 13:20:00 15.3 C 52 % 5.51 C
162 17-05-2020 13:25:00 15.4 C 52 % 5.61 C
163 17-05-2020 13:30:00 15.4 C 51 % 5.33 C
164 17-05-2020 13:35:00 15.6 C 52 % 5.79 C
165 17-05-2020 13:40:00 15.7 C 51 % 5.6 C
166 17-05-2020 13:45:00 15.8 C 51 % 5.69 C
167 17-05-2020 13:50:00 15.8 C 52 % 5.97 C
168 17-05-2020 13:55:00 15.9 C 51 % 5.79 C
169 17-05-2020 14:00:00 16.2 C 49 % 5.49 C
170 17-05-2020 14:05:00 16.3 C 49 % 5.58 C
171 17-05-2020 14:10:00 16.4 C 50 % 5.96 C
172 17-05-2020 14:15:00 16.6 C 48 % 5.56 C
173 17-05-2020 14:20:00 16.6 C 47 % 5.25 C
174 17-05-2020 14:25:00 16.8 C 47 % 5.44 C
175 17-05-2020 14:30:00 16.9 C 47 % 5.53 C
Sensor: Nr:Datum:Temp:Feuchte:Taupunkt:
Aussen-T/F 176 17-05-2020 14:35:00 16.9 C 47 % 5.53 C
177 17-05-2020 14:40:00 17.1 C 47 % 5.71 C
178 17-05-2020 14:45:00 17.4 C 46 % 5.67 C
179 17-05-2020 14:50:00 17.5 C 43 % 4.8 C
180 17-05-2020 14:55:00 17.5 C 46 % 5.76 C
181 17-05-2020 15:00:00 17.8 C 44 % 5.4 C
182 17-05-2020 15:05:00 17.9 C 43 % 5.16 C
183 17-05-2020 15:10:00 18 C 41 % 4.57 C
184 17-05-2020 15:15:00 18.1 C 41 % 4.66 C
185 17-05-2020 15:20:00 18.1 C 43 % 5.34 C
186 17-05-2020 15:25:00 18.3 C 40 % 4.48 C
187 17-05-2020 15:30:00 18.6 C 41 % 5.1 C
188 17-05-2020 15:35:00 19.2 C 42 % 5.99 C
189 17-05-2020 15:40:00 19.5 C 40 % 5.56 C
190 17-05-2020 15:45:00 19.4 C 40 % 5.47 C
191 17-05-2020 15:50:00 19.4 C 40 % 5.47 C
192 17-05-2020 15:55:00 19.2 C 41 % 5.64 C
193 17-05-2020 16:00:00 19.2 C 41 % 5.64 C
194 17-05-2020 16:05:00 19.3 C 40 % 5.38 C
195 17-05-2020 16:10:00 19.4 C 41 % 5.82 C
196 17-05-2020 16:15:00 19.8 C 39 % 5.46 C
197 17-05-2020 16:20:00 20 C 38 % 5.26 C
198 17-05-2020 16:25:00 20.2 C 38 % 5.44 C
199 17-05-2020 16:30:00 20.4 C 36 % 4.84 C
200 17-05-2020 16:35:00 20.7 C 36 % 5.11 C
Sensor: Nr:Datum:Temp:Feuchte:Taupunkt:
Aussen-T/F 201 17-05-2020 16:40:00 20.7 C 35 % 4.7 C
202 17-05-2020 16:45:00 20.7 C 35 % 4.7 C
203 17-05-2020 16:50:00 20.6 C 35 % 4.62 C
204 17-05-2020 16:55:00 20.6 C 35 % 4.62 C
205 17-05-2020 17:00:00 20.7 C 34 % 4.29 C
206 17-05-2020 17:05:00 20.3 C 34 % 3.94 C
207 17-05-2020 17:10:00 20.4 C 35 % 4.44 C
208 17-05-2020 17:15:00 20.8 C 35 % 4.79 C
209 17-05-2020 17:20:00 20.8 C 34 % 4.38 C
210 17-05-2020 17:25:00 20.8 C 33 % 3.95 C
211 17-05-2020 17:30:00 20.8 C 34 % 4.38 C
212 17-05-2020 17:35:00 20.9 C 34 % 4.47 C
213 17-05-2020 17:40:00 20.7 C 35 % 4.7 C
214 17-05-2020 17:45:00 20.5 C 36 % 4.93 C
215 17-05-2020 17:50:00 20.7 C 36 % 5.11 C
216 17-05-2020 17:55:00 20.9 C 36 % 5.28 C
217 17-05-2020 18:00:00 21.1 C 35 % 5.06 C
218 17-05-2020 18:05:00 21.1 C 35 % 5.06 C
219 17-05-2020 18:10:00 21 C 35 % 4.97 C
220 17-05-2020 18:15:00 21.1 C 36 % 5.46 C
221 17-05-2020 18:20:00 21.2 C 35 % 5.14 C
222 17-05-2020 18:25:00 20.7 C 36 % 5.11 C
223 17-05-2020 18:30:00 20.7 C 36 % 5.11 C
224 17-05-2020 18:35:00 20.9 C 37 % 5.68 C
225 17-05-2020 18:40:00 21.2 C 37 % 5.94 C
Sensor: Nr:Datum:Temp:Feuchte:Taupunkt:
Aussen-T/F 226 17-05-2020 18:45:00 21.1 C 35 % 5.06 C
227 17-05-2020 18:50:00 20.8 C 35 % 4.79 C
228 17-05-2020 18:55:00 20.6 C 35 % 4.62 C
229 17-05-2020 19:00:00 20.4 C 36 % 4.84 C
230 17-05-2020 19:05:00 20.6 C 37 % 5.41 C
231 17-05-2020 19:10:00 20.7 C 37 % 5.5 C
232 17-05-2020 19:15:00 20.6 C 36 % 5.02 C
233 17-05-2020 19:20:00 20.4 C 36 % 4.84 C
234 17-05-2020 19:25:00 20 C 37 % 4.88 C
235 17-05-2020 19:30:00 19.8 C 38 % 5.09 C
236 17-05-2020 19:35:00 19.8 C 38 % 5.09 C
237 17-05-2020 19:40:00 19.6 C 38 % 4.91 C
238 17-05-2020 19:45:00 19.4 C 39 % 5.1 C
239 17-05-2020 19:50:00 19.4 C 39 % 5.1 C
240 17-05-2020 19:55:00 19.4 C 40 % 5.47 C
241 17-05-2020 20:00:00 19.3 C 40 % 5.38 C
242 17-05-2020 20:05:00 19.2 C 41 % 5.64 C
243 17-05-2020 20:10:00 19.1 C 40 % 5.2 C
244 17-05-2020 20:15:00 18.9 C 41 % 5.37 C
245 17-05-2020 20:20:00 18.7 C 42 % 5.54 C
246 17-05-2020 20:25:00 18.6 C 42 % 5.45 C
247 17-05-2020 20:30:00 18.4 C 42 % 5.27 C
248 17-05-2020 20:35:00 18.3 C 43 % 5.52 C
249 17-05-2020 20:40:00 18.2 C 44 % 5.76 C
250 17-05-2020 20:45:00 18 C 49 % 7.14 C
Sensor: Nr:Datum:Temp:Feuchte:Taupunkt:
Aussen-T/F 251 17-05-2020 20:50:00 17.7 C 50 % 7.16 C
252 17-05-2020 20:55:00 17.2 C 52 % 7.27 C
253 17-05-2020 21:00:00 16.7 C 53 % 7.08 C
254 17-05-2020 21:05:00 16.1 C 54 % 6.8 C
255 17-05-2020 21:10:00 15.7 C 55 % 6.69 C
256 17-05-2020 21:15:00 15.3 C 56 % 6.58 C
257 17-05-2020 21:20:00 14.9 C 56 % 6.21 C
258 17-05-2020 21:25:00 14.7 C 57 % 6.28 C
259 17-05-2020 21:30:00 14.4 C 58 % 6.25 C
260 17-05-2020 21:35:00 14.2 C 58 % 6.06 C
261 17-05-2020 21:40:00 14 C 59 % 6.12 C
262 17-05-2020 21:45:00 13.8 C 60 % 6.18 C
263 17-05-2020 21:50:00 13.7 C 60 % 6.09 C
264 17-05-2020 21:55:00 13.6 C 60 % 5.99 C
265 17-05-2020 22:00:00 13.5 C 60 % 5.9 C
266 17-05-2020 22:05:00 13.4 C 60 % 5.8 C
267 17-05-2020 22:10:00 13.4 C 60 % 5.8 C
268 17-05-2020 22:15:00 13.3 C 61 % 5.95 C
269 17-05-2020 22:20:00 13.3 C 61 % 5.95 C
270 17-05-2020 22:25:00 13.2 C 62 % 6.09 C
271 17-05-2020 22:30:00 13.1 C 63 % 6.22 C
272 17-05-2020 22:35:00 12.9 C 63 % 6.04 C
273 17-05-2020 22:40:00 12.7 C 64 % 6.07 C
274 17-05-2020 22:45:00 12.6 C 64 % 5.98 C
275 17-05-2020 22:50:00 12.4 C 67 % 6.45 C
Sensor: Nr:Datum:Temp:Feuchte:Taupunkt:
Aussen-T/F 276 17-05-2020 22:55:00 12.1 C 67 % 6.17 C
277 17-05-2020 23:00:00 11.8 C 69 % 6.31 C
278 17-05-2020 23:05:00 11.5 C 70 % 6.23 C
279 17-05-2020 23:10:00 11.3 C 71 % 6.24 C
280 17-05-2020 23:15:00 11.1 C 71 % 6.05 C
281 17-05-2020 23:20:00 10.9 C 72 % 6.06 C
282 17-05-2020 23:25:00 10.7 C 72 % 5.87 C
283 17-05-2020 23:30:00 10.6 C 73 % 5.97 C
284 17-05-2020 23:35:00 10.4 C 74 % 5.97 C
285 17-05-2020 23:40:00 10.3 C 74 % 5.88 C
286 17-05-2020 23:45:00 10.2 C 75 % 5.97 C
287 17-05-2020 23:50:00 10.1 C 75 % 5.88 C
288 17-05-2020 23:55:00 9.9 C 75 % 5.68 C

Legende:
   Min
   Max


Maximal/Minimal-Werte vom 17.05.2020 - 17.05.2020

Sensor Min Max Avg
Temp
(Aussen-T/F)
6.7 °C
17-05-2020  06:05:00
21.2 °C
17-05-2020  18:20:00
13.12 °C
Feuchte
(Aussen-T/F)
33 %
17-05-2020  17:25:00
89 %
17-05-2020  07:00:00
63.38 %
Taupunkt
(Aussen-T/F)
3.94 C
17-05-2020  17:05:00
7.27 C
17-05-2020  20:55:00
5.54 C

Die Daten stammen von einer Davis Vantage Pro 2 Wetter-Station und werden unter Linux mit der Software wview2wettercgi und aufbereitet. Alle Angaben erfolgen ohne Gewähr für ihre Vollständigkeit oder Richtigkeit.
Kontakt: Rainer Krienke krienke@uni-koblenz.de . Meine Webseiten an der Uni Koblenz oder privat.
Version: $Revision: 0.78 $